Weather in Musirmy

Russia / Chuvash Republic     55°37′16″N   47°58′49″E
temp.,
°C
wind,
m/s
gust,
m/s
humid.,
%
clouds,
%
prec.,
mm/h
press.,
hPa
HPBL,
m
6 may, thu
thu600:00+5wsw3879100 0.0 1012191
03:00+5sw2683100 0.0 1013177
06:00+6sw388992 0.1 1014272
09:00+9wsw368366 0.1 1015266
12:00+17sw695584 0.0 10151692
15:00+17sw685197 0.0 10141367
18:00+15sw51064100 0.0 1015318
21:00+11s41077100 0.0 1015179
7 may, fri
fri700:00+11s51376100 0.0 1015281
03:00+9s51276100 0.0 1015257
06:00+10s61371100 0.0 1015374
09:00+13ssw61364100 0.0 1015576
12:00+17ssw81251100 0.0 10151973
15:00+14w6969100 1.2 10151071
18:00+11wnw3780100 0.5 1017440
21:00+10sw0087100 0.8 101816
8 may, sat
sat800:00+9nnw008742 0.0 101910
03:00+8ene228752 0.0 101925
06:00+9ene258892 0.0 1019182
09:00+12se4680100 0.0 1018490
12:00+16sse5765100 0.1 10171284
15:00+19s684758 0.2 10152201
18:00+16sse6116592 0.0 1014366
21:00+13sse51374100 0.0 1014306
9 may, sun
sun900:00+13sse61669100 0.0 1013376
03:00+12sse71766100 0.0 1012414
06:00+12sse61569100 0.0 1012448
09:00+14s71474100 0.1 1012695
12:00+15sse71365100 0.3 1012860
15:00+15se4879100 1.4 1013441
18:00+15se3778100 0.0 1012251
21:00+11nnw4798100 2.4 1015185
10 may, mon
mon1000:00+8n5896100 2.4 1016237
03:00+8nne5997100 5.1 1017284
06:00+9nne5996100 0.3 1019253
09:00+12nne6889100 0.3 1020453
12:00+15nne5681100 0.0 1021676
15:00+15n7780100 0.0 1022527
18:00+13n71183100 0.0 1023415
21:00+9nne61189100 0.0 1025303